SCP
0 0 0 0 0 0 0 0 0 0 0 0 0 0 0 0 -0 -0 -0 -0 -0 -0 -0 -0 -0 -0 0 0 -0 -0 0 0
0 0 0 -0 0 0 0 0 0 0 0 0 0 0 0 0 0 0 -0 0 -0 -0 -0 -0 -0 -0 -0 0 -0 -0 -0 -0
0 0 0 0 -0 0 0 0 0 0 0 0 1 0 0 0 0 0 0 0 0 0 0 0 0 -0 -0 -0 -0 -0 0 0
0 0 0 0 0 0 0 0 -0 0 0 0 0 0 0 0 0 0 0 1 0 0 0 0 0 0 0 0 0 0 -0 -0
0 0 0 0 0 0 0 0 0 -0 0 0 0 0 0 0 0 0 1 1 0 0 1 0 0 0 0 0 0 0 0 0
0 0 0 0 0 0 0 0 0 0 0 0 1 0 0 0 0 0 0 0 0 0 0 0 0 0 0 0 0 0 0 0
0 0 0 0 0 0 0 0 0 -0 0 0 0 0 0 0 0 0 0 1 0 0 0 0 0 0 1 0 0 0 0 0
0 0 0 0 0 0 0 0 0 0 0 0 0 0 0 0 0 0 0 0 0 0 0 0 0 1 1 0 0 0 0 0
0 0 0 0 0 0 0 0 0 0 0 0 0 0 0 0 0 0 0 0 0 0 0 0 0 1 0 0 0 0 0 0
0 0 0 0 0 0 0 0 0 0 0 0 0 0 0 0 0 0 0 1 1 1 1 0 0 0 0 0 0 0 0 1
0 0 0 0 0 0 0 0 0 0 0 0 0 0 0 0 0 0 0 1 1 1 2 1 1 1 0 0 0 0 0 1
0 0 0 0 0 0 0 0 0 0 0 0 0 0 0 0 0 0 1 1 1 2 5 2 1 3 2 0 1 1 1 1
0 0 0 0 0 0 0 0 0 0 0 0 0 0 0 0 0 0 1 0 0 1 5 4 2 1 5 3 1 1 1 2
0 0 0 0 0 0 0 0 0 0 0 0 0 0 0 0 0 0 1 2 3 3 5 4 5 2 3 3 3 2 2 3
0 0 0 0 0 0 -0 0 0 0 0 0 0 0 0 0 0 0 0 2 7 6 6 6 5 5 3 3 5 4 3 3
-0 0 0 0 0 0 -0 0 0 0 0 0 0 0 0 0 0 0 0 2 4 8 5 9 6 6 6 6 3 4 5 3
-0 -0 0 0 0 0 0 0 0 0 0 0 0 0 0 0 0 0 0 0 1 4 9 7 9 7 5 5 5 4 3 4
0 0 0 0 0 0 0 0 0 0 0 0 0 0 0 0 0 0 0 0 0 1 4 7 6 7 6 4 3 5 4 3
0 0 0 0 0 0 0 0 0 0 0 0 0 0 0 0 0 0 0 0 0 0 0 3 4 5 5 5 6 5 5 6
0 0 0 0 0 0 0 0 0 0 0 0 0 0 0 0 0 0 0 0 0 0 0 1 2 3 3 6 6 4 5 5
Wind_Speed_500mb
17 29 34 38 18 36 16 24 16 12 10 15 20 33 28 45 46 38 52 53 54 53 47 42 38 34 33 35 32 28 25 24
29 43 49 55 31 35 8 3 18 18 15 19 14 8 30 44 43 42 43 46 52 50 48 42 39 37 36 37 34 30 26 25
34 47 47 45 49 28 14 20 22 16 11 27 18 24 37 44 40 41 42 41 51 47 46 43 39 38 39 40 36 30 26 24
36 46 47 41 10 13 36 17 16 12 14 32 30 32 34 40 38 39 42 37 48 47 44 41 40 42 40 43 39 31 28 26
44 42 46 43 10 22 29 30 16 22 9 30 34 33 31 36 36 40 36 34 46 49 45 40 40 43 42 42 39 33 29 25
43 39 47 36 49 33 24 13 13 11 20 22 36 33 29 31 34 37 35 27 39 48 47 45 45 45 44 44 39 35 32 31
51 48 40 17 20 36 18 15 13 24 30 23 23 26 26 31 33 38 36 34 28 47 47 45 46 51 49 46 42 39 36 35
46 45 38 41 30 24 28 22 25 10 19 9 19 24 28 28 31 37 37 35 35 36 40 42 40 52 54 54 52 48 44 41
56 62 61 35 20 32 37 19 26 31 26 20 18 19 22 33 34 39 38 40 39 39 38 39 40 41 53 56 55 53 50 49
56 61 49 22 35 28 44 27 30 17 17 4 6 9 18 21 21 44 44 44 45 40 47 41 47 43 47 55 57 58 56 52
54 64 23 20 32 29 35 26 33 40 22 15 18 16 25 31 31 27 39 47 53 42 47 46 52 48 40 53 51 56 56 57
44 49 43 27 32 36 51 45 31 41 35 32 32 33 35 34 35 30 19 44 29 33 47 50 61 46 45 39 47 43 47 50
40 35 36 37 40 44 49 48 49 54 36 49 45 42 43 28 26 47 26 16 42 43 49 53 47 61 47 50 53 56 51 52
34 38 34 39 40 39 52 51 52 34 39 39 40 48 33 33 31 25 29 32 34 39 45 53 55 59 62 51 57 57 55 59
38 39 39 41 38 34 47 59 55 42 40 44 45 36 33 35 26 22 31 33 24 44 48 52 56 56 64 62 60 60 61 59
38 37 30 31 35 31 41 14 19 26 34 46 33 42 42 42 32 25 17 20 41 32 50 51 54 51 52 54 76 73 59 66
30 35 36 31 30 28 34 32 33 40 39 38 37 35 31 26 25 20 14 17 25 42 26 47 47 48 50 61 58 64 78 60
32 28 15 17 25 27 31 38 39 41 40 40 39 36 36 25 29 23 21 18 18 28 36 40 44 54 50 51 52 60 58 68
37 32 29 33 35 32 40 43 48 44 44 42 46 41 35 41 35 31 23 14 18 20 15 31 45 42 49 56 53 53 60 65
34 30 25 24 28 35 41 41 38 44 40 39 45 32 32 28 27 21 22 27 21 15 21 19 23 40 50 47 56 65 59 56
Wind_Direction_500mb
245 238 239 248 305 323 158 93 138 201 240 7 76 121 125 139 148 158 151 159 160 160 164 168 171 170 168 168 163 157 153 155
258 238 238 250 265 273 328 346 207 230 175 96 76 97 139 143 149 146 152 164 163 164 166 171 173 175 174 175 172 167 164 165
236 242 251 247 254 313 270 203 192 218 180 114 111 117 130 147 151 149 152 172 166 168 170 172 173 178 177 178 178 176 174 174
236 241 238 248 318 163 252 274 267 144 214 113 132 128 141 152 154 155 160 176 170 170 173 176 179 178 181 179 181 184 187 186
249 251 246 228 213 206 251 277 266 242 247 129 149 138 147 156 155 157 171 194 177 174 176 180 183 182 183 184 186 188 192 197
237 251 258 265 189 243 245 273 41 264 44 123 117 141 149 157 161 160 165 186 181 180 180 182 184 186 186 188 193 198 198 198
242 235 252 213 236 230 230 329 205 227 93 116 133 145 159 161 168 170 171 195 191 183 186 186 189 188 188 193 199 204 206 204
241 253 262 269 214 207 261 253 272 242 92 141 168 172 172 172 179 178 176 187 186 185 192 185 192 195 195 197 201 205 206 207
248 248 254 293 208 189 237 201 235 242 206 182 197 202 214 188 188 186 183 188 199 189 207 182 185 203 203 205 207 209 211 209
258 246 252 255 280 185 230 218 232 252 279 10 97 204 243 253 244 189 188 189 199 203 206 189 190 217 211 210 210 212 213 216
240 259 262 265 252 270 277 241 252 267 271 251 254 251 251 251 255 251 197 192 188 204 213 207 188 220 224 210 216 218 217 220
253 246 256 248 260 251 251 262 259 253 260 245 243 233 236 243 250 250 245 175 180 196 222 220 197 199 222 221 214 225 226 230
248 244 242 236 240 239 242 241 240 243 246 248 241 236 238 238 245 246 258 197 226 196 226 231 218 197 202 216 211 222 220 232
238 235 235 231 245 234 231 229 236 224 245 250 236 240 231 232 249 234 233 232 206 201 216 234 238 218 204 213 219 214 228 219
250 230 211 218 239 248 262 214 221 218 233 244 237 234 238 230 227 236 243 232 229 228 215 234 239 241 221 210 219 222 216 227
247 232 195 226 231 237 270 180 194 218 243 246 229 240 230 225 235 238 215 247 231 224 224 216 239 238 234 230 227 224 225 221
225 243 199 217 249 253 241 217 216 228 221 251 243 234 231 224 212 216 262 256 242 233 216 220 217 225 233 229 238 237 225 233
287 298 276 236 240 249 256 265 228 225 220 222 236 238 233 224 223 230 233 240 254 239 230 229 226 229 232 245 246 241 244 231
261 272 256 253 256 264 261 247 246 238 235 218 230 224 216 229 234 226 217 248 257 262 254 236 231 236 240 237 241 239 240 238
267 268 262 236 254 243 230 230 233 236 222 232 233 232 243 237 247 223 247 263 256 260 263 261 268 240 233 247 246 242 240 244
Wind_Speed_850mb
17 29 34 38 18 36 16 24 16 12 10 15 20 33 28 45 46 38 52 53 54 53 47 42 38 34 33 35 32 28 25 24
29 43 49 55 31 35 8 3 18 18 15 19 14 8 30 44 43 42 43 46 52 50 48 42 39 37 36 37 34 30 26 25
34 47 47 45 49 28 14 20 22 16 11 27 18 24 37 44 40 41 42 41 51 47 46 43 39 38 39 40 36 30 26 24
36 46 47 41 10 13 36 17 16 12 14 32 30 32 34 40 38 39 42 37 48 47 44 41 40 42 40 43 39 31 28 26
44 42 46 43 10 22 29 30 16 22 9 30 34 33 31 36 36 40 36 34 46 49 45 40 40 43 42 42 39 33 29 25
43 39 47 36 49 33 24 13 13 11 20 22 36 33 29 31 34 37 35 27 39 48 47 45 45 45 44 44 39 35 32 31
51 48 40 17 20 36 18 15 13 24 30 23 23 26 26 31 33 38 36 34 28 47 47 45 46 51 49 46 42 39 36 35
46 45 38 41 30 24 28 22 25 10 19 9 19 24 28 28 31 37 37 35 35 36 40 42 40 52 54 54 52 48 44 41
56 62 61 35 20 32 37 19 26 31 26 20 18 19 22 33 34 39 38 40 39 39 38 39 40 41 53 56 55 53 50 49
56 61 49 22 35 28 44 27 30 17 17 4 6 9 18 21 21 44 44 44 45 40 47 41 47 43 47 55 57 58 56 52
54 64 23 20 32 29 35 26 33 40 22 15 18 16 25 31 31 27 39 47 53 42 47 46 52 48 40 53 51 56 56 57
44 49 43 27 32 36 51 45 31 41 35 32 32 33 35 34 35 30 19 44 29 33 47 50 61 46 45 39 47 43 47 50
40 35 36 37 40 44 49 48 49 54 36 49 45 42 43 28 26 47 26 16 42 43 49 53 47 61 47 50 53 56 51 52
34 38 34 39 40 39 52 51 52 34 39 39 40 48 33 33 31 25 29 32 34 39 45 53 55 59 62 51 57 57 55 59
38 39 39 41 38 34 47 59 55 42 40 44 45 36 33 35 26 22 31 33 24 44 48 52 56 56 64 62 60 60 61 59
38 37 30 31 35 31 41 14 19 26 34 46 33 42 42 42 32 25 17 20 41 32 50 51 54 51 52 54 76 73 59 66
30 35 36 31 30 28 34 32 33 40 39 38 37 35 31 26 25 20 14 17 25 42 26 47 47 48 50 61 58 64 78 60
32 28 15 17 25 27 31 38 39 41 40 40 39 36 36 25 29 23 21 18 18 28 36 40 44 54 50 51 52 60 58 68
37 32 29 33 35 32 40 43 48 44 44 42 46 41 35 41 35 31 23 14 18 20 15 31 45 42 49 56 53 53 60 65
34 30 25 24 28 35 41 41 38 44 40 39 45 32 32 28 27 21 22 27 21 15 21 19 23 40 50 47 56 65 59 56
Wind_Direction_850mb
245 238 239 248 305 323 158 93 138 201 240 7 76 121 125 139 148 158 151 159 160 160 164 168 171 170 168 168 163 157 153 155
258 238 238 250 265 273 328 346 207 230 175 96 76 97 139 143 149 146 152 164 163 164 166 171 173 175 174 175 172 167 164 165
236 242 251 247 254 313 270 203 192 218 180 114 111 117 130 147 151 149 152 172 166 168 170 172 173 178 177 178 178 176 174 174
236 241 238 248 318 163 252 274 267 144 214 113 132 128 141 152 154 155 160 176 170 170 173 176 179 178 181 179 181 184 187 186
249 251 246 228 213 206 251 277 266 242 247 129 149 138 147 156 155 157 171 194 177 174 176 180 183 182 183 184 186 188 192 197
237 251 258 265 189 243 245 273 41 264 44 123 117 141 149 157 161 160 165 186 181 180 180 182 184 186 186 188 193 198 198 198
242 235 252 213 236 230 230 329 205 227 93 116 133 145 159 161 168 170 171 195 191 183 186 186 189 188 188 193 199 204 206 204
241 253 262 269 214 207 261 253 272 242 92 141 168 172 172 172 179 178 176 187 186 185 192 185 192 195 195 197 201 205 206 207
248 248 254 293 208 189 237 201 235 242 206 182 197 202 214 188 188 186 183 188 199 189 207 182 185 203 203 205 207 209 211 209
258 246 252 255 280 185 230 218 232 252 279 10 97 204 243 253 244 189 188 189 199 203 206 189 190 217 211 210 210 212 213 216
240 259 262 265 252 270 277 241 252 267 271 251 254 251 251 251 255 251 197 192 188 204 213 207 188 220 224 210 216 218 217 220
253 246 256 248 260 251 251 262 259 253 260 245 243 233 236 243 250 250 245 175 180 196 222 220 197 199 222 221 214 225 226 230
248 244 242 236 240 239 242 241 240 243 246 248 241 236 238 238 245 246 258 197 226 196 226 231 218 197 202 216 211 222 220 232
238 235 235 231 245 234 231 229 236 224 245 250 236 240 231 232 249 234 233 232 206 201 216 234 238 218 204 213 219 214 228 219
250 230 211 218 239 248 262 214 221 218 233 244 237 234 238 230 227 236 243 232 229 228 215 234 239 241 221 210 219 222 216 227
247 232 195 226 231 237 270 180 194 218 243 246 229 240 230 225 235 238 215 247 231 224 224 216 239 238 234 230 227 224 225 221
225 243 199 217 249 253 241 217 216 228 221 251 243 234 231 224 212 216 262 256 242 233 216 220 217 225 233 229 238 237 225 233
287 298 276 236 240 249 256 265 228 225 220 222 236 238 233 224 223 230 233 240 254 239 230 229 226 229 232 245 246 241 244 231
261 272 256 253 256 264 261 247 246 238 235 218 230 224 216 229 234 226 217 248 257 262 254 236 231 236 240 237 241 239 240 238
267 268 262 236 254 243 230 230 233 236 222 232 233 232 243 237 247 223 247 263 256 260 263 261 268 240 233 247 246 242 240 244